Atlantic - Newfoundland: Past 24 Hour Conditions

 

St. Lawrence

10:30 AM NDT 25 October 2014
This table is a summary of hourly weather conditions for the past 24 hours.
Date / Time
(NDT)
Wind(knots) Conditions Visibility(km) Pressure(kPa) Air tempC) Relative humidity(%) Dew pointC)
25 October 2014
10:30 ENE 22 gust 28 N/A N/A 99.3 10 95 9
9:30 ENE 24 gust 29 N/A N/A 99.3 10 96 9
8:30 ENE 17 gust 22 N/A N/A 99.4 10 96 9
7:30 ENE 17 gust 23 N/A N/A 99.4 10 96 9
6:30 ENE 15 gust 25 N/A N/A 99.4 10 96 10
5:30 ENE 19 gust 24 N/A N/A 99.4 11 97 10
4:30 E 9 N/A N/A 99.5 11 97 10
3:30 ENE 14 gust 21 N/A N/A 99.6 11 97 10
2:30 ENE 12 N/A N/A 99.7 11 97 10
1:30 ENE 9 N/A N/A 99.8 11 97 11
0:30 ENE 7 N/A N/A 99.8 11 97 11
24 October 2014
23:30 ENE 11 N/A N/A 99.9 11 96 11
22:30 ENE 11 N/A N/A 99.9 11 96 11
21:30 ENE 12 N/A N/A 100.0 11 96 11
20:30 ENE 12 gust 18 N/A N/A 100.0 11 96 11
19:30 NE 14 gust 20 N/A N/A 100.1 12 96 11
18:30 ENE 17 N/A N/A 100.1 12 96 11
17:30 ENE 14 N/A N/A 100.3 12 96 11
16:30 ENE 14 N/A N/A 100.3 12 96 11
15:30 ENE 17 gust 24 N/A N/A 100.4 12 96 11
14:30 ENE 17 gust 24 N/A N/A 100.5 12 96 11
13:30 ENE 20 N/A N/A 100.6 12 96 11
12:30 ENE 15 gust 21 N/A N/A 100.8 12 96 11
11:30 ENE 16 N/A N/A 100.9 11 96 11
10:30 ENE 16 gust 21 N/A N/A 101.0 11 95 10
 
Map of Atlantic - Newfoundland marine weather areas Southwestern Grand Banks - 44138 Banquereau - 44139 Tail of the Bank - 44140 Nickerson Bank - 44251 Northeast Burgeo Bank - 44255 Blanc-Sablon Airport Cap Whittle Chevery Natashquan Airport Heath Point Miscou Island Grand Étang Ingonish Beach North Mountain St.Paul Island J.A. Douglas McCurdy Sydney Airport Charlottetown Airport East Point North Cape Argentia Bonavista Burgeo Cape Race Corner Brook Daniel's Harbour Englee Ferolle Point La Scie Port aux Basques Rocky Harbour Sagona Island St. Anthony Airport St. John's Int'l Airport St. Lawrence Stephenville Airport Twillingate Winterland Wreckhouse Cartwright Airport Mary's Harbour Grates Cove Pool's Island Marticot Island Long Pond Îles de la Madeleine Airport
Legend: buoyBuoy land stationLand Station